Regional Weather Roundup
Issued by NWS

Home | Current Version | Previous Version | Graphics & Text | Print | Product List | Glossary On
Versions: 1 2 3 4 5 6 7 8 9 10 11 12 13 14 15 16 17 18 19 20 21 22 23 24 25 26 27 28 29 30 31 32 33 34 35 36 37 38 39 40 41 42 43 44 45 46 47 48 49 50
000
ASUS43 KLSX 281059
RWRMO

WEATHER SUMMARY FOR MISSOURI
NATIONAL WEATHER SERVICE SPRINGFIELD MO
600 AM CDT MON JUL 28 2014

NOTE: "FAIR" INDICATES FEW OR NO CLOUDS BELOW 12,000 FEET WITH NO
       SIGNIFICANT WEATHER AND/OR OBSTRUCTIONS TO VISIBILITY.
       CURRENT SKY AND/OR WEATHER CONDITIONS ARE NOT AVAILABLE FOR
       CHILLICOTHE AND FARMINGTON.

MOZ001>031-035>038-043-044-053-054-281200-
...NORTHERN AND WESTERN MISSOURI...

CITY           SKY/WX    TMP DP  RH WIND       PRES   REMARKS
KANSAS CTY INT CLEAR     59  56  89 NW7       30.17R
KANSAS C DTWN  CLEAR     65  57  75 NW5       30.16R
LEE`S SUMMIT   CLEAR     61  57  87 W3        30.17R
ST JOSEPH      CLEAR     59  56  89 N6        30.18S
CHILLICOTHE      N/A     63  57  81 VRB5      30.15R
KIRKSVILLE     CLEAR     60  57  89 NW7       30.13R

$$
MOZ066>068-077>081-088>096-101>105-281200-
...SOUTHWEST MISSOURI...

CITY           SKY/WX    TMP DP  RH WIND       PRES   REMARKS
SPRINGFIELD    CLEAR     60  55  83 N7        30.15R
JOPLIN         CLEAR     62  58  86 CALM      30.17R

$$
MOZ032>034-039>042-045>050-055>058-069>072-281200-
...CENTRAL MISSOURI...

CITY           SKY/WX    TMP DP  RH WIND       PRES   REMARKS
COLUMBIA       CLEAR     61  57  87 W8        30.11R
JEFFERSON CITY CLEAR     63  58  83 NW6       30.10R
ROLLA          CLEAR     61  56  83 NW8       30.09R
SEDALIA        CLEAR     61  56  83 NW7       30.13S
OSAGE BEACH    CLEAR     64  55  72 NW5       30.12R

$$
MOZ051-052-059>065-281200-
...EAST CENTRAL MISSOURI...

CITY           SKY/WX    TMP DP  RH WIND       PRES   REMARKS
ST LOUIS INTL  CLEAR     66  59  78 NW6       30.05R
SPIRIT OF STL  CLEAR     64  58  80 NW5       30.05R
ST CHARLES     CLEAR     66  59  78 NW8       30.04R

$$
MOZ072>076-082>087-097>100-106>115-281200-
...SOUTH CENTRAL AND SOUTHEAST MISSOURI...

CITY           SKY/WX    TMP DP  RH WIND       PRES   REMARKS
CAPE GIRARDEAU CLEAR     62  59  90 W3        30.03R
FARMINGTON     CLEAR     63  55  77 NW5       30.08R
POPLAR BLUFF   CLEAR     64  57  78 CALM      30.04R
WEST PLAINS    CLEAR     63  56  78 NW6       30.12R

$$


USA.gov is the U.S. government's official web portal to all federal, state and local government web resources and services.